Change the Weather History Date:

Thursday, October 17, 2013

  Actual Average Record
Temperature  
Mean Temperature 59 °F 50 °F  
Max Temperature 68 °F 58 °F 85 °F (1947)
Min Temperature 50 °F 41 °F 23 °F (1940)
Degree Days  
Heating Degree Days 6 16  
Month to date heating degree days 140 219  
Since 1 July heating degree days 329 412  
Cooling Degree Days 0 0  
Month to date cooling degree days 1 0  
Year to date cooling degree days 572 468  
Growing Degree Days 9 (Base 50)    
Moisture  
Dew Point 55 °F    
Average Humidity 78    
Maximum Humidity 100    
Minimum Humidity 55    
Precipitation  
Precipitation 0.06 in 0.15 in 1.97 in (1936)
Month to date precipitation 1.23 2.66  
Year to date precipitation 37.48 37.95  
Snow  
Snow 0.00 in 0.10 in T in (1970)
Month to date snowfall 0.0 0.1  
Since 1 July snowfall 0.0 0.1  
Since 1 September snowfall 0.0 0.1  
Snow Depth 0.00 in    
Sea Level Pressure  
Sea Level Pressure 29.83 in    
Wind  
Wind Speed 10 mph (SW)    
Max Wind Speed 16 mph    
Max Gust Speed 20 mph    
Visibility 8 miles    
Events Fog , Rain    
T = Trace of Precipitation, MM = Missing Value Source: NWS Daily Summary

Daily Weather History Graph

Daily Weather History Graph

Search for Another Location

Airport or City:

Trip Planner

Search our weather history database for the weather conditions in past years. The results will help you decide how hot, cold, wet, or windy it might be!

Date:

Astronomy

Oct. 17, 2013 Rise Set
Actual Time 7:02 AM EDT 6:02 PM EDT
Civil Twilight 6:34 AM EDT 6:30 PM EDT
Nautical Twilight 6:01 AM EDT 7:02 PM EDT
Astronomical Twilight 5:29 AM EDT 7:35 PM EDT
Moon 5:15 PM EDT (10/17) 5:30 AM EDT (10/17)
Length of Visible Light 11h 55m
Length of Day
10h 59m
Waxing Gibbous, 98% of the Moon is Illuminated
Oct 17
Waxing Gibbous
Oct 18
Full
Oct 26
Last Quarter
Nov 3
New
Nov 10
First Quarter

Hourly Weather History & Observations

Time (EDT) Temp. Dew Point Humidity Pressure Visibility Wind Dir Wind Speed Gust Speed Precip Events Conditions
12:54 AM 50.0 °F 48.9 °F 96% 29.92 in 10.0 mi SW 6.9 mph - N/A   Mostly Cloudy
1:54 AM 52.0 °F 51.1 °F 97% 29.91 in 10.0 mi WSW 9.2 mph - N/A   Mostly Cloudy
2:01 AM 52.0 °F 51.1 °F 97% 29.90 in 9.0 mi WSW 9.2 mph - N/A   Mostly Cloudy
2:54 AM 54.0 °F 54.0 °F 100% 29.89 in 8.0 mi WSW 11.5 mph - N/A   Overcast
3:40 AM 55.0 °F 54.0 °F 96% 29.87 in 9.0 mi SW 10.4 mph - N/A   Overcast
3:54 AM 55.0 °F 54.0 °F 96% 29.88 in 10.0 mi WSW 12.7 mph - N/A   Overcast
4:30 AM 55.9 °F 54.0 °F 93% 29.87 in 10.0 mi WSW 12.7 mph - N/A   Mostly Cloudy
4:54 AM 55.0 °F 54.0 °F 96% 29.87 in 10.0 mi SW 10.4 mph - N/A   Scattered Clouds
5:54 AM 55.0 °F 54.0 °F 96% 29.86 in 8.0 mi WSW 13.8 mph - N/A   Partly Cloudy
6:08 AM 55.0 °F 54.0 °F 96% 29.86 in 7.0 mi WSW 13.8 mph - N/A   Partly Cloudy
6:54 AM 55.0 °F 54.0 °F 96% 29.87 in 6.0 mi WSW 12.7 mph - N/A   Mostly Cloudy
7:01 AM 55.0 °F 54.0 °F 96% 29.86 in 6.0 mi WSW 12.7 mph - N/A   Partly Cloudy
7:33 AM 55.0 °F 55.0 °F 100% 29.87 in 5.0 mi WSW 11.5 mph - N/A   Mostly Cloudy
7:54 AM 55.9 °F 55.0 °F 97% 29.88 in 6.0 mi WSW 11.5 mph - N/A   Mostly Cloudy
8:01 AM 57.0 °F 55.9 °F 96% 29.87 in 7.0 mi WSW 11.5 mph - N/A   Mostly Cloudy
8:08 AM 57.9 °F 55.9 °F 93% 29.88 in 8.0 mi WSW 13.8 mph - N/A   Scattered Clouds
8:36 AM 59.0 °F 57.0 °F 93% 29.88 in 10.0 mi WSW 10.4 mph - N/A   Mostly Cloudy
8:54 AM 57.9 °F 57.0 °F 97% 29.89 in 10.0 mi WSW 12.7 mph - N/A   Overcast
9:54 AM 59.0 °F 57.0 °F 93% 29.89 in 10.0 mi WSW 12.7 mph - N/A   Overcast
10:54 AM 61.0 °F 57.0 °F 87% 29.88 in 10.0 mi WSW 11.5 mph - N/A   Overcast
11:32 AM 61.0 °F 55.9 °F 83% 29.87 in 10.0 mi West 9.2 mph - N/A   Overcast
11:46 AM 63.0 °F 55.9 °F 78% 29.87 in 10.0 mi WSW 10.4 mph - N/A   Scattered Clouds
11:54 AM 63.0 °F 55.0 °F 75% 29.87 in 10.0 mi WSW 9.2 mph - N/A   Partly Cloudy
12:54 PM 66.0 °F 54.0 °F 65% 29.85 in 10.0 mi WSW 13.8 mph - N/A   Scattered Clouds
1:54 PM 68.0 °F 54.0 °F 61% 29.83 in 10.0 mi WSW 10.4 mph - N/A   Partly Cloudy
2:54 PM 66.9 °F 54.0 °F 63% 29.81 in 10.0 mi WSW 12.7 mph - N/A   Scattered Clouds
3:54 PM 68.0 °F 52.0 °F 56% 29.80 in 10.0 mi West 11.5 mph - N/A   Partly Cloudy
4:54 PM 66.9 °F 53.1 °F 61% 29.79 in 10.0 mi WSW 8.1 mph - N/A   Clear
5:54 PM 64.0 °F 53.1 °F 67% 29.79 in 10.0 mi South 4.6 mph - N/A   Clear
6:54 PM 62.1 °F 53.1 °F 72% 29.78 in 10.0 mi Calm Calm - N/A   Clear
7:54 PM 60.1 °F 54.0 °F 80% 29.78 in 10.0 mi SSW 6.9 mph - N/A   Partly Cloudy
8:54 PM 59.0 °F 55.9 °F 90% 29.78 in 10.0 mi SSW 4.6 mph - N/A   Scattered Clouds
9:44 PM 59.0 °F 57.0 °F 93% 29.76 in 8.0 mi South 6.9 mph - N/A   Mostly Cloudy
9:54 PM 59.0 °F 57.0 °F 93% 29.76 in 7.0 mi South 8.1 mph - N/A   Mostly Cloudy
10:09 PM 57.9 °F 57.9 °F 100% 29.76 in 4.0 mi SSW 8.1 mph - N/A   Overcast
10:19 PM 57.9 °F 57.9 °F 100% 29.76 in 1.8 mi SSW 10.4 mph - N/A   Overcast
10:43 PM 57.9 °F 57.9 °F 100% 29.75 in 0.5 mi SSW 11.5 mph - 0.00 in Fog , Rain Light Rain
10:54 PM 57.9 °F 57.9 °F 100% 29.74 in 0.2 mi SSW 10.4 mph - 0.00 in Fog Fog
11:33 PM 57.9 °F 57.9 °F 100% 29.74 in 0.5 mi SSW 11.5 mph - 0.01 in Fog , Rain Light Rain
11:43 PM 57.9 °F 57.9 °F 100% 29.74 in 2.0 mi SSW 11.5 mph - 0.02 in Rain Rain
11:52 PM 57.2 °F 57.2 °F 100% 29.73 in 4.0 mi SSW 9.2 mph - 0.03 in Rain Light Rain
11:54 PM 57.9 °F 57.9 °F 100% 29.74 in 4.0 mi SSW 10.4 mph - 0.03 in Rain Light Rain